Orbital Elements at Epoch 2459200.5 (2020-Dec-17.0) TDB
Reference: JPL 17 (heliocentric ecliptic J2000)
Element | Value | Uncertainty (1-sigma) | Units |
e | .00649233367406979 | 4.0982e-08 | |
a | 2.943090991985592 | 2.5247e-08 | au |
q | 2.923983463232472 | 1.3081e-07 | au |
i | 7.94548569242728 | 4.6622e-06 | deg |
node | 348.0260227214356 | 3.422e-05 | deg |
peri | 34.69005025872593 | 0.00041624 | deg |
M | 305.1464937564438 | 0.00041669 | deg |
tp | 2459481.499698058753 (2021-Sep-23.99969806) | 0.0021357 | TDB |
period | 1844.182773877547 5.05 | 2.373e-05 6.497e-08 | d yr |
n | .1952084170285737 | 2.5118e-09 | deg/d |
Q | 2.962198520738712 | 2.5411e-08 | au |
|
| | Orbit Determination Parameters
Additional Information
|